Tracking 19909 objects as of 23-Oct-2019
HD Live streaming from Space Station
objects crossing your sky now

KAZEOSAT 2

Track KAZEOSAT 2 now!
10-day predictions
KAZEOSAT 2 is classified as:


NORAD ID: 40010
Int'l Code: 2014-033A
Perigee: 618.1 km
Apogee: 641.7 km
Inclination: 97.8 °
Period: 97.2 minutes
Semi major axis: 7000 km
RCS: Unknown
Launch date: June 19, 2014
Source: Kazakhstan (KAZ)
Launch site: Orenburg, Russia (OREN)
aabbcc
Your satellite tracking list
Your tracking list is empty




NASA's NSSDC Master Catalog

Two Line Element Set (TLE):
1 40010U 14033A   19295.95851989 +.00000021 +00000-0 +92333-5 0  9994
2 40010 097.8232 192.4093 0016805 006.7417 353.4026 14.82077732288991
Source of the keplerian elements: AFSPC